Tracking 28790 objects as of 19-Apr-2024
HD Live streaming from Space Station
objects crossing your sky now

ATLAS 55E DEB

Track ATLAS 55E DEB now!
10-day predictions


NORAD ID: 26921
Int'l Code: 1985-093C
Perigee: 699.3 km
Apogee: 20,654.9 km
Inclination: 63.2 °
Period: 369.2 minutes
Semi major axis: 17048 km
RCS: 0.0669 m2 (small)
Launch date: October 9, 1985
Source: United States (US)
Launch site: AIR FORCE WESTERN TEST RANGE (AFWTR)

Note: This is SATELLITE DEBRIS
Your satellite tracking list
Your tracking list is empty




NASA's NSSDC Master Catalog

Two Line Element Set (TLE):
1 26921U 85093C   24108.30167286 -.00000079  00000-0 -89927-4 0  9990
2 26921  63.2055 328.6538 5852714  20.9490 355.5526  3.90022199135616
Source of the keplerian elements: AFSPC